GW4841 Weather Reports


time (UTC)temp
C
wind
direction
speed
KPH
gust
KPH
rain 1hr
cm
rain 24hr
cm
rain mn
cm
humidity
%
barometer
mb
20260505140229 31 217 9.7 12.9 0.00 0.00 0.00 62 1018.4
20260505130153 30 35 3.2 4.8 0.00 0.00 0.00 70 1018.2
20260505124642 28 245 6.4 17.7 0.00 0.00 0.00 73 1018.1
20260505124139 28 43 1.6 11.3 0.00 0.00 0.00 75 1018.2
20260505123635 28 29 0.0 3.2 0.00 0.00 0.00 76 1018.3
20260505123132 28 232 1.6 3.2 0.00 0.00 0.00 77 1018.3
20260505122628 28 170 1.6 6.4 0.00 0.00 0.00 77 1018.2
20260505122126 28 165 6.4 6.4 0.00 0.00 0.00 76 1018.1
20260505121622 27 35 0.0 3.2 0.00 0.00 0.00 78 1018.1
20260505121119 27 204 3.2 9.7 0.00 0.00 0.00 78 1018.1
20260505120615 27 102 1.6 4.8 0.00 0.00 0.00 78 1018.0
20260505120111 27 192 1.6 3.2 0.00 0.00 0.00 80 1018.0
20260505115606 27 125 4.8 6.4 0.00 0.00 0.00 79 1017.9
20260505115103 27 269 1.6 3.2 0.00 0.00 0.00 80 1017.7
20260505114600 26 182 0.0 4.8 0.00 0.00 0.00 82 1017.8
20260505114056 26 111 3.2 4.8 0.00 0.00 0.00 81 1017.9
20260505113553 26 63 4.8 6.4 0.00 0.00 0.00 82 1017.8
20260505113050 26 137 1.6 4.8 0.00 0.00 0.00 82 1017.7
20260505112546 26 30 1.6 4.8 0.00 0.00 0.00 84 1017.8
20260505112045 25 45 3.2 3.2 0.00 0.00 0.00 84 1017.7
20260505111543 25 53 3.2 4.8 0.00 0.00 0.00 85 1017.8
20260505111040 25 47 3.2 3.2 0.00 0.00 0.00 84 1017.7
20260505110531 25 132 1.6 3.2 0.00 0.00 0.00 86 1017.6
20260505102004 23 267 0.0 0.0 0.00 0.00 0.00 91 1017.2
20260505101503 23 268 0.0 0.0 0.00 0.00 0.00 91 1017.1
20260505100958 23 268 0.0 0.0 0.00 0.00 0.00 91 1017.1
20260505100455 23 257 0.0 0.0 0.00 0.00 0.00 91 1017.1
20260505095952 23 250 0.0 1.6 0.00 0.00 0.00 91 1016.9
20260505095448 23 226 0.0 0.0 0.00 0.00 0.00 91 1016.8
20260505094944 23 219 1.6 3.2 0.00 0.00 0.00 91 1016.8
20260505094441 23 235 0.0 0.0 0.00 0.00 0.00 90 1016.8
20260505093937 23 235 0.0 1.6 0.00 0.00 0.00 90 1016.9
20260505093434 23 259 0.0 1.6 0.00 0.00 0.00 90 1016.8
20260505092932 23 176 0.0 0.0 0.00 0.00 0.00 91 1016.7
20260505092429 23 168 0.0 0.0 0.00 0.00 0.00 90 1016.7
20260505091926 23 172 0.0 1.6 0.00 0.00 0.00 90 1016.8
20260505091424 23 168 1.6 1.6 0.00 0.00 0.00 90 1016.8
20260505090922 23 152 0.0 1.6 0.00 0.00 0.00 90 1016.6
20260505090420 23 68 0.0 0.0 0.00 0.00 0.00 90 1016.7
20260505085917 23 70 0.0 1.6 0.00 0.00 0.00 89 1016.6
20260505085415 23 143 0.0 1.6 0.00 0.00 0.00 89 1016.6
20260505084913 23 150 0.0 1.6 0.00 0.00 0.00 89 1016.6
20260505084411 23 119 0.0 1.6 0.00 0.00 0.00 88 1016.5
20260505083909 23 136 0.0 1.6 0.00 0.00 0.00 88 1016.7
20260505083406 23 149 1.6 1.6 0.00 0.00 0.00 89 1016.5
20260505082902 23 166 0.0 1.6 0.00 0.00 0.00 89 1016.5
20260505082357 23 324 0.0 0.0 0.00 0.00 0.00 89 1016.4
20260505081854 23 1 0.0 0.0 0.00 0.00 0.00 89 1016.6
20260505081351 23 0 0.0 0.0 0.00 0.00 0.00 89 1016.5
20260505080848 23 352 0.0 0.0 0.00 0.00 0.00 87 1016.7
20260505080344 24 53 0.0 0.0 0.00 0.00 0.00 88 1016.6
20260505075839 24 53 0.0 0.0 0.00 0.00 0.00 88 1016.6
20260505075337 24 53 0.0 0.0 0.00 0.00 0.00 88 1016.7
20260505074833 24 61 0.0 0.0 0.00 0.00 0.00 88 1016.7
20260505074331 24 62 0.0 0.0 0.00 0.00 0.00 88 1016.6
20260505073828 24 62 0.0 0.0 0.00 0.00 0.00 88 1016.4
20260505073326 24 63 0.0 0.0 0.00 0.00 0.00 87 1016.5
20260505072823 24 23 0.0 0.0 0.00 0.00 0.00 87 1016.5
20260505072319 24 137 0.0 0.0 0.00 0.00 0.00 87 1016.5
20260505071815 24 160 0.0 0.0 0.00 0.00 0.00 86 1016.4
20260505071311 25 117 1.6 1.6 0.00 0.00 0.00 86 1016.2
20260505070810 25 48 0.0 1.6 0.00 0.00 0.00 86 1016.4
20260505070306 24 112 3.2 4.8 0.00 0.00 0.00 86 1016.4
20260505065801 24 123 0.0 0.0 0.00 0.00 0.00 86 1016.5
20260505065258 25 117 0.0 1.6 0.00 0.00 0.00 86 1016.4
20260505064755 25 49 0.0 0.0 0.00 0.00 0.00 86 1016.7
20260505064252 25 39 0.0 0.0 0.00 0.00 0.00 86 1016.6
20260505063750 24 38 0.0 0.0 0.00 0.00 0.00 86 1016.4
20260505063246 24 38 0.0 0.0 0.00 0.00 0.00 86 1016.6
20260505062743 24 38 0.0 0.0 0.00 0.00 0.00 86 1016.6
20260505062240 24 39 0.0 0.0 0.00 0.00 0.00 85 1016.6
20260505061737 24 37 0.0 0.0 0.00 0.00 0.00 85 1016.8
20260505061235 24 37 0.0 0.0 0.00 0.00 0.00 85 1016.6
20260505060732 24 37 0.0 0.0 0.00 0.00 0.00 85 1016.8
20260505060229 25 38 0.0 0.0 0.00 0.00 0.00 85 1016.9
20260505055724 25 37 0.0 1.6 0.00 0.00 0.00 85 1016.9
20260505055221 25 35 0.0 0.0 0.00 0.00 0.00 85 1016.9
20260505054718 25 77 0.0 0.0 0.00 0.00 0.00 85 1017.1
20260505054216 25 69 0.0 0.0 0.00 0.00 0.00 85 1017.1
20260505053714 25 174 0.0 0.0 0.00 0.00 0.00 85 1017.1
20260505053209 25 182 0.0 1.6 0.00 0.00 0.00 84 1017.2
20260505052707 25 177 0.0 0.0 0.00 0.00 0.00 84 1017.2
20260505052203 25 181 0.0 0.0 0.00 0.00 0.00 84 1017.3
20260505051701 25 186 0.0 1.6 0.00 0.00 0.00 84 1017.2
20260505051159 25 216 0.0 0.0 0.00 0.00 0.00 84 1017.3
20260505050656 25 238 0.0 0.0 0.00 0.00 0.00 84 1017.3
20260505050156 25 184 1.6 3.2 0.00 0.00 0.00 84 1017.3
20260505041630 25 159 3.2 4.8 0.00 0.00 0.00 83 1017.7
20260505041128 25 191 3.2 4.8 0.00 0.00 0.00 84 1017.8
20260505040624 25 167 1.6 6.4 0.00 0.00 0.00 84 1017.8
20260505040122 25 163 1.6 4.8 0.00 0.00 0.00 83 1017.8
20260505035618 25 199 1.6 4.8 0.00 0.00 0.00 83 1018.0
20260505035114 25 179 1.6 4.8 0.00 0.00 0.00 83 1018.0
20260505034611 25 246 0.0 1.6 0.00 0.00 0.00 83 1018.0
20260505034108 25 239 0.0 1.6 0.00 0.00 0.00 83 1018.2
20260505033605 25 245 0.0 1.6 0.00 0.00 0.00 83 1018.2
20260505033103 26 154 3.2 3.2 0.00 0.00 0.00 82 1018.3
20260505032601 26 268 0.0 0.0 0.00 0.00 0.00 82 1018.3
20260505032057 26 135 1.6 1.6 0.00 0.00 0.00 82 1018.1
20260505031554 26 119 0.0 3.2 0.00 0.00 0.00 82 1018.2
20260505031050 26 189 0.0 3.2 0.00 0.00 0.00 82 1018.2
20260505030548 26 194 0.0 1.6 0.00 0.00 0.00 82 1018.1
20260505030043 26 155 3.2 4.8 0.00 0.00 0.00 81 1018.3
20260505025539 26 139 1.6 3.2 0.00 0.00 0.00 81 1018.3
20260505025038 26 164 3.2 4.8 0.00 0.00 0.00 81 1018.1
20260505024535 26 190 0.0 3.2 0.00 0.00 0.00 80 1018.5
20260505024032 26 171 1.6 1.6 0.00 0.00 0.00 80 1018.2
20260505023529 26 24 0.0 0.0 0.00 0.00 0.00 80 1018.3
20260505023027 26 1 1.6 4.8 0.00 0.00 0.00 80 1018.1
20260505022524 26 40 0.0 0.0 0.00 0.00 0.00 80 1018.2
20260505022021 26 67 3.2 4.8 0.00 0.00 0.00 80 1018.1
20260505021518 26 113 1.6 3.2 0.00 0.00 0.00 80 1018.0
20260505021009 26 102 3.2 3.2 0.00 0.00 0.00 79 1018.0
20260505020508 26 64 1.6 3.2 0.00 0.00 0.00 79 1017.9
20260505020006 26 38 3.2 4.8 0.00 0.00 0.00 79 1017.9
20260505015503 26 128 3.2 3.2 0.00 0.00 0.00 79 1017.9
20260505015000 26 120 4.8 4.8 0.00 0.00 0.00 79 1018.0
20260505014457 26 100 1.6 4.8 0.00 0.00 0.00 78 1017.8
20260505013954 26 31 0.0 3.2 0.00 0.00 0.00 78 1017.9
20260505013451 26 142 0.0 1.6 0.00 0.00 0.00 77 1017.9
20260505012948 26 106 1.6 4.8 0.00 0.00 0.00 77 1017.8
20260505012446 26 77 3.2 6.4 0.00 0.00 0.00 77 1017.7
20260505011943 26 95 3.2 4.8 0.00 0.00 0.00 76 1017.5
20260505011438 27 55 0.0 3.2 0.00 0.00 0.00 76 1017.5
20260505010936 27 43 0.0 1.6 0.00 0.00 0.00 76 1017.3
20260505010431 27 99 1.6 3.2 0.00 0.00 0.00 75 1017.4
20260505005928 27 59 4.8 4.8 0.00 0.00 0.00 75 1017.5
20260505005425 27 77 1.6 4.8 0.00 0.00 0.00 75 1017.3
20260505004922 27 38 0.0 4.8 0.00 0.00 0.00 74 1017.1
20260505004419 27 57 3.2 4.8 0.00 0.00 0.00 74 1017.2
20260505003915 27 336 0.0 4.8 0.00 0.00 0.00 74 1017.1
20260505003413 27 57 0.0 4.8 0.00 0.00 0.00 74 1017.0
20260505002909 27 47 1.6 3.2 0.00 0.00 0.00 74 1017.0
20260505002405 27 61 1.6 1.6 0.00 0.00 0.00 73 1017.0
20260505001904 27 49 1.6 3.2 0.00 0.00 0.00 73 1017.0
20260505001401 27 17 0.0 4.8 0.00 0.00 0.00 73 1017.0
20260505000858 27 51 3.2 4.8 0.00 0.00 0.00 73 1017.0
20260505000355 27 32 0.0 0.0 0.00 0.00 0.00 73 1017.0
20260504235852 27 58 1.6 4.8 0.00 0.00 0.00 73 1016.8
20260504235349 27 138 3.2 3.2 0.00 0.00 0.00 73 1016.7
20260504234845 27 32 0.0 3.2 0.00 0.00 0.00 73 1016.7
20260504234343 27 26 0.0 6.4 0.00 0.00 0.00 72 1016.8
20260504233840 27 48 3.2 6.4 0.00 0.00 0.00 72 1016.6
20260504233335 28 49 3.2 4.8 0.00 0.00 0.00 72 1016.6
20260504232832 28 50 1.6 6.4 0.00 0.00 0.00 72 1016.8
20260504232329 28 48 4.8 4.8 0.00 0.00 0.00 71 1016.6
20260504231826 28 111 3.2 4.8 0.00 0.00 0.00 70 1016.8
20260504231323 28 36 3.2 4.8 0.00 0.00 0.00 69 1016.6
20260504230819 28 60 0.0 3.2 0.00 0.00 0.00 69 1016.5
20260504230317 28 17 1.6 3.2 0.00 0.00 0.00 69 1016.5
20260504225816 28 42 0.0 3.2 0.00 0.00 0.00 69 1016.3
20260504225311 28 40 4.8 4.8 0.00 0.00 0.00 68 1016.1
20260504224809 28 337 0.0 4.8 0.00 0.00 0.00 68 1016.3
20260504224306 28 34 4.8 6.4 0.00 0.00 0.00 68 1016.2
20260504223802 28 43 4.8 4.8 0.00 0.00 0.00 68 1015.9
20260504223258 28 45 0.0 1.6 0.00 0.00 0.00 67 1016.1
20260504222755 29 166 1.6 9.7 0.00 0.00 0.00 66 1016.1
20260504222251 29 47 1.6 4.8 0.00 0.00 0.00 67 1015.7
20260504221749 29 47 1.6 4.8 0.00 0.00 0.00 66 1015.7
20260504221246 29 48 4.8 9.7 0.00 0.00 0.00 66 1015.5
20260504220743 29 48 0.0 1.6 0.00 0.00 0.00 65 1015.4
20260504220240 30 58 3.2 11.3 0.00 0.00 0.00 64 1015.5
20260504215737 30 106 3.2 12.9 0.00 0.00 0.00 64 1015.4
20260504215234 30 56 1.6 4.8 0.00 0.00 0.00 63 1015.5
20260504214730 30 185 1.6 9.7 0.00 0.00 0.00 63 1015.2
20260504214226 30 122 4.8 9.7 0.00 0.00 0.00 63 1015.2
20260504213723 30 87 6.4 9.7 0.00 0.00 0.00 63 1015.1
20260504213219 30 78 0.0 9.7 0.00 0.00 0.00 61 1015.2
20260504212717 31 258 3.2 4.8 0.00 0.00 0.00 59 1015.0
20260504212214 31 120 1.6 6.4 0.00 0.00 0.00 59 1014.9
20260504211711 31 14 1.6 6.4 0.00 0.00 0.00 61 1015.0
20260504211207 31 51 1.6 6.4 0.00 0.00 0.00 61 1015.0
20260504210704 31 34 3.2 4.8 0.00 0.00 0.00 59 1014.9
20260504210201 31 205 3.2 6.4 0.00 0.00 0.00 60 1015.0
20260504205658 32 112 8.0 14.5 0.00 0.00 0.00 59 1015.0
20260504205155 32 187 0.0 6.4 0.00 0.00 0.00 58 1014.7
20260504204654 31 149 1.6 6.4 0.00 0.00 0.00 59 1014.9
20260504204153 32 317 0.0 16.1 0.00 0.00 0.00 59 1014.8
20260504203651 32 257 3.2 11.3 0.00 0.00 0.00 58 1014.7
20260504203149 32 53 1.6 11.3 0.00 0.00 0.00 59 1014.7
20260504202648 32 154 3.2 6.4 0.00 0.00 0.00 58 1014.6
20260504202146 32 229 3.2 4.8 0.00 0.00 0.00 57 1014.6
20260504201643 32 278 1.6 16.1 0.00 0.00 0.00 57 1014.7
20260504201140 32 30 3.2 9.7 0.00 0.00 0.00 56 1014.6
20260504200637 32 247 4.8 11.3 0.00 0.00 0.00 56 1014.6
20260504200134 32 66 6.4 14.5 0.00 0.00 0.00 56 1014.6
20260504195630 32 177 4.8 6.4 0.00 0.00 0.00 57 1014.7
20260504195126 32 75 8.0 12.9 0.00 0.00 0.00 56 1014.8
20260504194623 33 269 6.4 14.5 0.00 0.00 0.00 54 1014.8
20260504194119 32 168 4.8 11.3 0.00 0.00 0.00 54 1015.0
20260504193615 32 151 3.2 12.9 0.00 0.00 0.00 54 1015.0
20260504193114 31 172 3.2 6.4 0.00 0.00 0.00 56 1014.7
20260504192612 32 89 8.0 16.1 0.00 0.00 0.00 56 1014.9
20260504192110 33 172 3.2 14.5 0.00 0.00 0.00 53 1015.0
20260504191608 33 192 4.8 11.3 0.00 0.00 0.00 51 1015.0
20260504191104 33 286 4.8 4.8 0.00 0.00 0.00 49 1014.9
20260504190600 33 209 4.8 9.7 0.00 0.00 0.00 49 1015.0
20260504190056 33 154 3.2 25.7 0.00 0.00 0.00 50 1014.8
20260504185553 33 80 8.0 11.3 0.00 0.00 0.00 50 1015.0
20260504185050 33 80 3.2 4.8 0.00 0.00 0.00 49 1015.1
20260504184545 33 310 3.2 9.7 0.00 0.00 0.00 49 1015.3
20260504184041 33 211 1.6 14.5 0.00 0.00 0.00 49 1015.3
20260504183538 33 279 0.0 11.3 0.00 0.00 0.00 49 1015.5
20260504183036 33 201 6.4 12.9 0.00 0.00 0.00 49 1015.5
20260504182532 32 231 8.0 11.3 0.00 0.00 0.00 50 1015.4
20260504182030 32 230 3.2 11.3 0.00 0.00 0.00 51 1015.5
20260504181527 32 181 6.4 14.5 0.00 0.00 0.00 51 1015.4
20260504181025 32 195 6.4 11.3 0.00 0.00 0.00 51 1015.7
20260504180524 32 150 6.4 12.9 0.00 0.00 0.00 50 1015.7
20260504180022 32 202 9.7 16.1 0.00 0.00 0.00 50 1015.7
20260504175519 32 208 3.2 9.7 0.00 0.00 0.00 52 1015.8
20260504175016 32 209 9.7 12.9 0.00 0.00 0.00 51 1015.7
20260504174514 33 183 1.6 14.5 0.00 0.00 0.00 49 1015.8
20260504174011 33 227 1.6 11.3 0.00 0.00 0.00 49 1016.0
20260504173507 32 117 6.4 17.7 0.00 0.00 0.00 49 1015.9
20260504173005 33 78 4.8 16.1 0.00 0.00 0.00 48 1016.0
20260504172501 33 216 3.2 9.7 0.00 0.00 0.00 48 1016.1
20260504171957 33 311 4.8 12.9 0.00 0.00 0.00 48 1016.0
20260504171454 32 222 3.2 9.7 0.00 0.00 0.00 50 1016.3
20260504170951 32 196 6.4 14.5 0.00 0.00 0.00 47 1016.3
20260504170447 32 202 11.3 14.5 0.00 0.00 0.00 48 1016.5
20260504160407 31 194 3.2 12.9 0.00 0.00 0.00 52 1017.2
20260504150831 31 158 3.2 9.7 0.00 0.00 0.00 58 1017.6
20260504150328 31 232 6.4 12.9 0.00 0.00 0.00 58 1017.6